Regional Weather Roundup
Issued by NWS

Home | Current Version | Previous Version | Text Only | Print | Product List | Glossary Off
Versions: 1 2 3 4 5 6 7 8 9 10 11 12 13 14 15 16 17 18 19 20 21 22 23 24 25 26 27 28 29 30 31 32 33 34 35 36 37 38 39 40 41 42 43 44 45 46 47 48 49 50

000
ASUS43 KLMK 151702
RWRKY
KENTUCKY REGIONAL WEATHER ROUNDUP
NATIONAL WEATHER SERVICE LOUISVILLE KY
1200 PM EST FRI DEC 15 2017

NOTE "FAIR" INDICATES FEW OR NO CLOUDS BELOW 12,000 FEET
WITH NO SIGNIFICANT WEATHER AND/OR OBSTRUCTIONS TO VISIBILITY.

KYZ001>023-026-027-061>063-070>075-151800-
WESTERN AND SOUTH CENTRAL KENTUCKY

CITY           SKY/WX    TMP DP  RH WIND       PRES   REMARKS
PADUCAH        SUNNY     40  22  48 W8        30.17F WCI  34
HENDERSON      MOSUNNY   37  22  54 W9        30.14F WCI  30
OWENSBORO      MOSUNNY   37  22  54 W10       30.15F WCI  30
HOPKINSVILLE   PTSUNNY   35  20  53 W12       30.18S WCI  27
BOWLING GREEN  CLOUDY    34  21  59 W9G18     30.17F WCI  27
GLASGOW        NOT AVBL
$$

KYZ024-025-028>034-038-045-046-053-151800-
NORTH CENTRAL KENTUCKY

CITY           SKY/WX    TMP DP  RH WIND       PRES   REMARKS
LOUISVILLE/SDF MOSUNNY   36  20  52 SW13G22   30.10F WCI  27
LOUISVILLE/LOU SUNNY     35  22  58 W12       30.10F WCI  27
FORT KNOX      MOSUNNY   34  20  57 SW13      30.09F WCI  25
$$

KYZ035>037-039>044-047>052-055>060-089>105-151800-
NORTHEAST KENTUCKY

CITY           SKY/WX    TMP DP  RH WIND       PRES   REMARKS
LEXINGTON      CLOUDY    31  18  58 W13G24    30.08S WCI  21
COVINGTON      MOSUNNY   32  21  64 SW12G22   30.01F WCI  23
FRANKFORT      CLOUDY    32  17  54 W12G23    30.08S WCI  23
$$

KYZ054-064>069-076>088-106>120-151800-
SOUTHEAST KENTUCKY

CITY           SKY/WX    TMP DP  RH WIND       PRES   REMARKS
JACKSON        CLOUDY    29  18  63 W9G23     30.05S WCI  20
LONDON         CLOUDY    31  19  61 W10G21    30.09S WCI  22
SOMERSET       NOT AVBL
MIDDLESBORO    CLOUDY    32  21  64 W6        30.10S WCI  26
MONTICELLO     CLOUDY    32  22  66 W16G22    30.13F WCI  21
$$





USA.gov is the U.S. government's official web portal to all federal, state and local government web resources and services.